LKMT Weather Reports


time (UTC)temp
F
wind
direction
speed
knots
gust
knots
rain 1hr
in
rain 24hr
in
rain mn
in
humidity
%
barometer
mb
20260507083231 64 230 12.2 0.0 0.00 0.00 0.00 63 1010.0
20260507082156 64 220 15.6 0.0 0.00 0.00 0.00 63
20260507080233 64 220 14.8 0.0 0.00 0.00 0.00 67 1010.0
20260507073223 64 230 13.9 0.0 0.00 0.00 0.00 67 1010.0
20260507072156 63 230 13.9 0.0 0.00 0.00 0.00 67
20260507070235 63 230 13.0 0.0 0.00 0.00 0.00 67 1010.0
20260507063231 61 240 8.7 0.0 0.00 0.00 0.00 72 1010.0
20260507062156 61 230 13.9 0.0 0.00 0.00 0.00 72
20260507060235 59 230 13.0 0.0 0.00 0.00 0.00 77 1010.0
20260507053224 59 250 13.0 0.0 0.00 0.00 0.00 77 1009.0
20260507052156 61 230 13.9 0.0 0.00 0.00 0.00 72
20260507050234 59 230 12.2 0.0 0.00 0.00 0.00 72 1009.0
20260507043224 59 240 11.3 0.0 0.00 0.00 0.00 72 1008.0
20260507042358 59 250 7.8 0.0 0.00 0.00 0.00 72
20260507040232 59 250 7.0 0.0 0.00 0.00 0.00 72 1008.0
20260507033224 61 210 13.0 0.0 0.00 0.00 0.00 67 1007.0
20260507032155 61 210 13.9 0.0 0.00 0.00 0.00 67
20260507030239 61 220 11.3 0.0 0.00 0.00 0.00 67 1007.0
20260507023223 63 220 11.3 0.0 0.00 0.00 0.00 63 1006.0
20260507022154 63 220 12.2 0.0 0.00 0.00 0.00 63
20260507020239 61 220 11.3 0.0 0.00 0.00 0.00 67 1007.0
20260507013224 63 190 13.0 0.0 0.00 0.00 0.00 63 1006.0
20260507012255 63 190 13.9 0.0 0.00 0.00 0.00 63
20260507010240 63 190 13.0 0.0 0.00 0.00 0.00 63 1006.0
20260507003223 63 190 10.4 0.0 0.00 0.00 0.00 63 1006.0
20260507002156 63 230 7.8 0.0 0.00 0.00 0.00 63
20260507000234 61 230 7.8 0.0 0.00 0.00 0.00 67 1006.0
20260506233224 64 190 8.7 0.0 0.00 0.00 0.00 59 1006.0
20260506232156 64 190 10.4 0.0 0.00 0.00 0.00 55
20260506230239 64 190 10.4 0.0 0.00 0.00 0.00 59 1006.0
20260506223223 64 190 8.7 0.0 0.00 0.00 0.00 59 1006.0
20260506222427 66 190 13.9 0.0 0.00 0.00 0.00 55
20260506220245 66 190 13.0 0.0 0.00 0.00 0.00 55 1006.0
20260506213231 66 190 13.0 0.0 0.00 0.00 0.00 55 1006.0
20260506212211 68 190 12.2 0.0 0.00 0.00 0.00 49
20260506210233 66 190 11.3 0.0 0.00 0.00 0.00 52 1006.0
20260506203222 68 190 12.2 0.0 0.00 0.00 0.00 49 1006.0
20260506202228 68 190 12.2 0.0 0.00 0.00 0.00 45
20260506200239 68 190 11.3 0.0 0.00 0.00 0.00 49 1006.0
20260506193232 70 190 13.0 0.0 0.00 0.00 0.00 46 1006.0
20260506192404 70 190 10.4 0.0 0.00 0.00 0.00 46
20260506190253 70 190 8.7 0.0 0.00 0.00 0.00 46 1005.0
20260506183245 70 190 8.7 0.0 0.00 0.00 0.00 46 1005.0
20260506182301 72 180 7.8 0.0 0.00 0.00 0.00 40
20260506180247 72 180 7.8 0.0 0.00 0.00 0.00 43 1005.0
20260506173238 72 180 8.7 0.0 0.00 0.00 0.00 43 1005.0
20260506172226 72 190 12.2 0.0 0.00 0.00 0.00 40
20260506170233 72 190 11.3 0.0 0.00 0.00 0.00 43 1005.0
20260506163238 73 190 10.4 0.0 0.00 0.00 0.00 43 1006.0
20260506162428 73 190 12.2 0.0 0.00 0.00 0.00 40
20260506160247 73 190 11.3 21.7 0.00 0.00 0.00 40 1006.0
20260506153238 73 190 13.0 0.0 0.00 0.00 0.00 40 1006.0
20260506152244 73 200 12.2 0.0 0.00 0.00 0.00 40
20260506150246 73 190 11.3 0.0 0.00 0.00 0.00 43 1006.0
20260506143238 75 210 13.0 0.0 0.00 0.00 0.00 41 1007.0
20260506142211 73 210 10.4 0.0 0.00 0.00 0.00 40
20260506140239 73 210 8.7 0.0 0.00 0.00 0.00 43 1007.0
20260506133238 75 220 13.0 0.0 0.00 0.00 0.00 41 1007.0
20260506132211 73 220 10.4 0.0 0.00 0.00 0.00 40
20260506130234 73 220 8.7 0.0 0.00 0.00 0.00 46 1007.0
20260506123230 73 200 10.4 0.0 0.00 0.00 0.00 40 1007.0
20260506122210 75 220 12.2 0.0 0.00 0.00 0.00 36
20260506120239 75 220 13.0 0.0 0.00 0.00 0.00 41 1007.0
20260506113230 73 230 14.8 0.0 0.00 0.00 0.00 43 1007.0
20260506112157 73 240 13.9 0.0 0.00 0.00 0.00 43
20260506110233 73 230 13.0 0.0 0.00 0.00 0.00 43 1007.0
20260506103230 72 230 15.6 0.0 0.00 0.00 0.00 46 1008.0
20260506102359 72 230 15.6 0.0 0.00 0.00 0.00 46
20260506100236 72 230 14.8 0.0 0.00 0.00 0.00 49 1008.0
20260506093231 70 250 14.8 0.0 0.00 0.00 0.00 49 1008.0
20260506092141 70 230 17.4 0.0 0.00 0.00 0.00 49
20260506090234 70 230 15.6 0.0 0.00 0.00 0.00 52 1008.0